Hourly Weather Rublevka

Today, 11 April, Sunday

Time Temperature Precipitation Wind Pressure Humidity
00:00 +4°C° 0 mm 2 mps 751 mmHg 61%
01:00 +3°C° 0 mm 2 mps 751 mmHg 62%
02:00 +3°C° 0 mm 2 mps 752 mmHg 64%
03:00 +2°C° 0 mm 2 mps 752 mmHg 66%
04:00 +2°C° 0 mm 2 mps 752 mmHg 66%
05:00 +2°C° 0 mm 2 mps 752 mmHg 67%
06:00 +3°C° 0 mm 1 mps 752 mmHg 68%
07:00 +5°C° 0 mm 1 mps 753 mmHg 63%
08:00 +6°C° 0 mm 1 mps 753 mmHg 58%
09:00 +8°C° 0 mm 1 mps 754 mmHg 53%
10:00 +9°C° 0 mm 1 mps 754 mmHg 49%
11:00 +11°C° 0 mm 1 mps 754 mmHg 45%
12:00 +11°C° 0 mm 0 mps 754 mmHg 42%
13:00 +13°C° 0 mm 1 mps 754 mmHg 40%
14:00 +13°C° 0 mm 1 mps 754 mmHg 38%
15:00 +14°C° 0 mm 1 mps 754 mmHg 36%
16:00 +14°C° 0 mm 1 mps 754 mmHg 39%
17:00 +14°C° 0 mm 2 mps 754 mmHg 41%
18:00 +13°C° 0 mm 2 mps 754 mmHg 43%
19:00 +12°C° 0 mm 2 mps 754 mmHg 48%
20:00 +10°C° 0 mm 2 mps 754 mmHg 53%
21:00 +8°C° 0 mm 2 mps 755 mmHg 59%
22:00 +7°C° 0 mm 2 mps 755 mmHg 62%
23:00 +7°C° 0 mm 3 mps 755 mmHg 65%

Tomorrow, 12 April, Monday

Time Temperature Precipitation Wind Pressure Humidity
00:00 +5°C° 0 mm 3 mps 755 mmHg 68%
01:00 +5°C° 0 mm 3 mps 755 mmHg 70%
02:00 +4°C° 0 mm 3 mps 755 mmHg 71%
03:00 +3°C° 0 mm 3 mps 755 mmHg 73%
04:00 +3°C° 0 mm 4 mps 755 mmHg 72%
05:00 +3°C° 0 mm 4 mps 755 mmHg 70%
06:00 +2°C° 0 mm 5 mps 754 mmHg 68%
07:00 +3°C° 0 mm 5 mps 754 mmHg 67%
08:00 +5°C° 0 mm 5 mps 754 mmHg 66%
09:00 +4°C° 0 mm 6 mps 754 mmHg 65%
10:00 +5°C° 0.2 mm 6 mps 754 mmHg 69%
11:00 +7°C° 0.2 mm 5 mps 753 mmHg 74%
12:00 +7°C° 0.2 mm 5 mps 753 mmHg 78%
13:00 +9°C° 0 mm 5 mps 753 mmHg 75%
14:00 +10°C° 0 mm 5 mps 753 mmHg 72%
15:00 +12°C° 0 mm 5 mps 752 mmHg 69%
16:00 +12°C° 0 mm 5 mps 752 mmHg 71%
17:00 +12°C° 0 mm 4 mps 752 mmHg 73%
18:00 +13°C° 0 mm 4 mps 751 mmHg 74%
19:00 +12°C° 0 mm 4 mps 751 mmHg 79%
20:00 +10°C° 0 mm 3 mps 751 mmHg 84%
21:00 +9°C° 0 mm 3 mps 751 mmHg 89%
22:00 +9°C° 0 mm 3 mps 751 mmHg 88%
23:00 +9°C° 0 mm 3 mps 750 mmHg 87%

Day after tomorrow, 13 April, Tuesday

Time Temperature Precipitation Wind Pressure Humidity
00:00 +9°C° 0 mm 3 mps 750 mmHg 86%
01:00 +9°C° 0 mm 3 mps 750 mmHg 84%
02:00 +8°C° 0 mm 3 mps 750 mmHg 83%
03:00 +8°C° 0 mm 3 mps 750 mmHg 82%
04:00 +8°C° 0 mm 3 mps 750 mmHg 83%
05:00 +7°C° 0 mm 3 mps 750 mmHg 84%
06:00 +7°C° 0 mm 3 mps 750 mmHg 85%
07:00 +9°C° 0 mm 3 mps 750 mmHg 78%
08:00 +10°C° 0 mm 4 mps 750 mmHg 70%
09:00 +12°C° 0 mm 4 mps 750 mmHg 63%
10:00 +14°C° 0 mm 5 mps 750 mmHg 57%
11:00 +15°C° 0 mm 5 mps 750 mmHg 51%
12:00 +17°C° 0 mm 5 mps 750 mmHg 45%
13:00 +19°C° 0 mm 5 mps 750 mmHg 42%
14:00 +19°C° 0 mm 6 mps 749 mmHg 39%
15:00 +20°C° 0 mm 6 mps 749 mmHg 36%
16:00 +19°C° 0 mm 5 mps 749 mmHg 41%
17:00 +19°C° 0 mm 4 mps 749 mmHg 45%
18:00 +18°C° 0 mm 3 mps 749 mmHg 50%
19:00 +17°C° 0 mm 3 mps 749 mmHg 54%
20:00 +16°C° 0 mm 3 mps 749 mmHg 58%
21:00 +13°C° 0 mm 3 mps 749 mmHg 62%
22:00 +12°C° 0 mm 3 mps 749 mmHg 63%
23:00 +12°C° 0 mm 3 mps 748 mmHg 64%

14 April, Wednesday

Time Temperature Precipitation Wind Pressure Humidity
00:00 +11°C° 0 mm 3 mps 748 mmHg 65%
01:00 +10°C° 0 mm 3 mps 748 mmHg 67%
02:00 +10°C° 0 mm 3 mps 748 mmHg 70%
03:00 +9°C° 0 mm 3 mps 748 mmHg 72%
04:00 +9°C° 0 mm 3 mps 748 mmHg 74%
05:00 +9°C° 0 mm 3 mps 748 mmHg 76%
06:00 +8°C° 0 mm 3 mps 748 mmHg 78%
07:00 +10°C° 0 mm 3 mps 748 mmHg 72%
08:00 +11°C° 0 mm 3 mps 748 mmHg 66%
09:00 +13°C° 0 mm 3 mps 748 mmHg 61%
10:00 +14°C° 0 mm 4 mps 748 mmHg 53%
11:00 +16°C° 0 mm 5 mps 747 mmHg 45%
12:00 +17°C° 0 mm 5 mps 747 mmHg 37%
13:00 +19°C° 0 mm 5 mps 747 mmHg 35%
14:00 +19°C° 0 mm 5 mps 747 mmHg 32%
15:00 +20°C° 0 mm 5 mps 746 mmHg 30%
16:00 +19°C° 0 mm 4 mps 746 mmHg 33%
17:00 +19°C° 0 mm 4 mps 746 mmHg 36%
18:00 +18°C° 0 mm 3 mps 746 mmHg 39%
19:00 +16°C° 0 mm 3 mps 746 mmHg 44%
20:00 +14°C° 0 mm 3 mps 746 mmHg 48%
21:00 +12°C° 0 mm 3 mps 746 mmHg 52%
22:00 +13°C° 0 mm 2 mps 746 mmHg 54%
23:00 +12°C° 0 mm 2 mps 746 mmHg 56%

15 April, Thursday

Time Temperature Precipitation Wind Pressure Humidity
00:00 +12°C° 0 mm 2 mps 745 mmHg 59%
01:00 +10°C° 0 mm 2 mps 745 mmHg 59%
02:00 +10°C° 0 mm 2 mps 745 mmHg 60%
03:00 +9°C° 0 mm 2 mps 745 mmHg 61%
04:00 +9°C° 0 mm 2 mps 745 mmHg 62%
05:00 +9°C° 0 mm 2 mps 745 mmHg 64%
06:00 +8°C° 0 mm 2 mps 745 mmHg 65%
07:00 +10°C° 0 mm 2 mps 744 mmHg 62%
08:00 +12°C° 0 mm 2 mps 744 mmHg 58%
09:00 +13°C° 0 mm 2 mps 744 mmHg 55%
10:00 +15°C° 0 mm 2 mps 744 mmHg 51%
11:00 +16°C° 0 mm 3 mps 744 mmHg 47%
12:00 +17°C° 0 mm 3 mps 744 mmHg 44%
13:00 +18°C° 0 mm 3 mps 743 mmHg 41%
14:00 +19°C° 0 mm 4 mps 743 mmHg 39%
15:00 +19°C° 0 mm 4 mps 742 mmHg 37%
16:00 +19°C° 0 mm 4 mps 742 mmHg 40%
17:00 +18°C° 0 mm 3 mps 742 mmHg 43%
18:00 +17°C° 0 mm 3 mps 741 mmHg 46%
19:00 +16°C° 0.1 mm 3 mps 741 mmHg 53%
20:00 +13°C° 0.1 mm 4 mps 741 mmHg 60%
21:00 +12°C° 0.1 mm 4 mps 741 mmHg 67%
22:00 +11°C° 0.2 mm 4 mps 742 mmHg 71%
23:00 +10°C° 0.2 mm 5 mps 742 mmHg 75%

16 April, Friday

Time Temperature Precipitation Wind Pressure Humidity
00:00 +10°C° 0.2 mm 5 mps 742 mmHg 79%
01:00 +9°C° 0.2 mm 6 mps 742 mmHg 81%
02:00 +8°C° 0.2 mm 7 mps 742 mmHg 82%
03:00 +6°C° 0.2 mm 8 mps 742 mmHg 84%
04:00 +5°C° 0 mm 8 mps 742 mmHg 84%
05:00 +3°C° 0 mm 9 mps 742 mmHg 84%
06:00 +3°C° 0 mm 9 mps 743 mmHg 84%
07:00 +2°C° 0.2 mm 9 mps 743 mmHg 82%
08:00 +2°C° 0.2 mm 9 mps 744 mmHg 80%
09:00 +2°C° 0.2 mm 9 mps 744 mmHg 78%
10:00 +2°C° 0 mm 9 mps 744 mmHg 72%
11:00 +3°C° 0 mm 9 mps 745 mmHg 65%
12:00 +3°C° 0 mm 9 mps 745 mmHg 59%
13:00 +5°C° 0 mm 9 mps 745 mmHg 53%
14:00 +6°C° 0 mm 9 mps 746 mmHg 48%
15:00 +7°C° 0 mm 9 mps 746 mmHg 42%
16:00 +6°C° 0 mm 9 mps 746 mmHg 42%
17:00 +6°C° 0 mm 10 mps 747 mmHg 43%
18:00 +5°C° 0 mm 10 mps 747 mmHg 43%
19:00 +3°C° 0 mm 9 mps 748 mmHg 44%
20:00 +2°C° 0 mm 9 mps 748 mmHg 45%
21:00 +1°C° 0 mm 8 mps 749 mmHg 46%
22:00 +1°C° 0 mm 8 mps 750 mmHg 49%
23:00 0°C° 0 mm 8 mps 750 mmHg 53%
Show more